Location: Caixon
(43.4106°N, 0.0273°E)
Time: 22:50:26
(UTC+00:00)

ATLAS CENTAUR R/B - Pass Details

Date: 16 October 2021
Orbit: 452 x 688 km, 64.7° (Epoch: 06 December)

Event Time Altitude Azimuth Distance (km) Brightness Sun altitude
Exits shadow 05:11:45 17° 248° (WSW) 1,381 2.8 -12.3°
Maximum altitude 05:14:26 39° 311° (NW) 823 1.8 -11.8°
Drops below altitude 10° 05:18:26 10° 22° (NNE) 1,892 4.3 -11.0°
Sets 05:20:53 0° 30° (NNE) 2,842 5.4 -10.6°
